CZ-6A DEB, 56639

Orbit data source: Space-Track

CZ-6A DEB, 56639 is space debris in SSO originally from a launch on Fri, 11 Nov 2022 UTC launched from the Taiyaun Space Center, China (TSC). Debris objects in space refer to the collection of defunct objects orbiting the Earth. Examples of debris include non-operational satellites, rocket bodies, and fragments generated from explosions, collisions, or faulty payload assembly.

Loading next visibility...
Identifier
56639, 2022-151AFP
Orbit
SSO
Country
Flag of CNCN / PRC
Related business
Manufacturer
SAST
Mission
Spacecraft
Bus & Motor
Unknown
Mass
Unknown
Launch date (UTC)
2022-11-11 (4 years ago)
Launch vehicle
Unknown
Launch site
Taiyaun Space Center, China (TSC)
Object type
Payload
Rocket body
Debris
Shape & HBR
Unknown shape, 0.1 m
Radar Cross Section
Small (<0.1 m²)

Expand to show TLE details & history
Last TLE update: 1 week ago

TLE from 1 week ago
0 CZ-6A DEB
1 56639U 22151AFP 26256.55444964  .00000216  00000-0  10269-3 0  9992
2 56639  98.7384 293.7457 0041224 117.8104 242.7265 14.28724672176951
Epoch: 2026-09-13T13:18Z
TLE epoch observation values (Epoch: 2026-09-13T13:18:24.448Z)
Latitude
-0.00002°
Longitude
101.59641°
Altitude
812.574 km
Speed
7.44 km/s
True Right ascension
19h 34m 58s
True Declination
0° 00' 00"
Sunlit
Object was in full shadow at epoch
Visualization orbit readout
Latitude
Unknown
Longitude
Unknown
Altitude
Unknown
Speed
Unknown
Apparent Right ascension
Unknown
Apparent Declination
Unknown
Sunlit
N/A
Visualization observer readout
Local Sidereal Time
16:01:33
Azimuth
Unknown
Elevation
Unknown
Doppler factor
Unknown
Orbital elements
Apogee altitude
822.708 km
Perigee altitude
763.582 km
Semi-major axis
7,171.282 km
Eccentricity
0.00412
Inclination
98.7384°
RAAN
293.7457°
Arg. of periapsis
117.8104°
True anomaly
242.30762°
Mean anomaly
242.7265°
Eccentric anomaly
242.51696°
Mean motion
3.57395 °/min
Orbital period
100.73 mins
BSTAR
0.00010269
Loading maneuver chart data...
Computing Atmospheric mass density...

Documentation

Showing up to 5 results
|